Overview Statistics Trail Chart Weather Telemetry Raw packets
 

This is the latest recevied weather packets stored in our database for station/object LKCS. If no packets are shown the sender has not sent any weather packets the latest 10 day(s).

<< 9 10 11 12 13 14 15 >>
Time Temp. Humidity Pressure Rain* Wind** Luminosity Snow
1788354160 23.89° C 41% 1020 hPa - - - -
1788352358 23.89° C 41% 1021 hPa - - - -
1788350560 23.89° C 41% 1021 hPa - - - -
1788348757 22.78° C 43% 1021 hPa - - - -
1788345158 22.78° C 43% 1021 hPa - - - -
1788343361 22.78° C 46% 1021 hPa - - - -
1788341558 22.22° C 46% 1022 hPa - - - -
1788339760 22.22° C 46% 1022 hPa - - - -
1788337958 21.11° C 49% 1022 hPa - - - -
1788336161 20° C 60% 1022 hPa - - - -
1788334365 17.78° C 67% 1022 hPa - - - -
1788330756 15° C 77% 1022 hPa - - - -
1788328957 12.78° C 87% 1022 hPa - - - -
1788327151 12.22° C 93% 1022 hPa - - - -
1788325353 11.11° C 93% 1022 hPa - - - -
1788323551 12.22° C 87% 1022 hPa - - - -
1788321765 11.11° C 93% 1022 hPa - - - -
1788319951 12.78° C 87% 1022 hPa - - - -
1788318167 12.22° C 87% 1022 hPa - - - -
1788316350 12.78° C 82% 1022 hPa - - - -
1788314560 12.22° C 87% 1022 hPa - - - -
1788312751 12.22° C 87% 1022 hPa - - - -
1788310962 12.78° C 82% 1022 hPa - - - -
1788309151 12.78° C 82% 1022 hPa - - - -
1788307366 13.89° C 76% 1022 hPa - - - -

* Rain since midnight (hover to see other rain measurements)
** Current wind speed in m/s (hover to see current wind gust speed)